sat.trackr.live / text

‹ back to catalog

STARLINK-37440

NORAD 69189 · 2026-114H

PAYLOAD ACTIVE UNKNOWN

§ Identity

Operator
Country
US
Launch date
2026-05-25
Launch site
AFETR
Launch vehicle
Mass (kg)
RCS (m²)

Purposes: comms

External: N2YO · Heavens-Above · Gunter

§ Orbital elements

Epoch: 2026-09-19T23:29:08.093760Z

Period
93.85 min
Inclination
53.1581°
Eccentricity
0.0001282
Mean motion
15.34407792 rev/d
Perigee alt
461.8 km
Apogee alt
463.6 km
Semi-major
6,840.8 km
B*
4.1718e-4
RAAN
116.3382°
Arg perigee
88.6958°
Mean anomaly
271.4191°
Rev number
1,936

§ Raw data

STARLINK-374401 69189U 26114H   26262.97856590  .00013748  00000+0  41718-3 0  99902 69189  53.1581 116.3382 0001282  88.6958 271.4191 15.34407792 19365

JSON: /api/v1/satellites/69189 · /tle

For live sub-satellite position, see the globe view (requires WebGL).

§ Visibility from observer

Set your observer location to see the next 7 days of passes ≥ 10°. The values pass through the URL so the page stays shareable.

No JS? Fill the form by hand. The geolocation button needs JavaScript.